[[{"header":{"parameterUnit":"m.s-1","parameterCategory":1,"la1":30.2991,"la2":30.254,"lo1":-89.0895,"lo2":-89.0444,"dy":0.0017,"dx":0.0017,"nx":28,"ny":28,"refTime":"2023-10-17T03:00:00:Z","depth":0,"parameterNumber":2,"parameterNumberName":"U-component_of_WINDS"},"data":[0,0,0,0,0,0,0,0,0,0,0,0,0,0,0,0,0,0,0,0,0,0,0,0,0,0,0,0,0,0,0,0,0,0,0,0,0,0,0,0,0,0,0,0,0,0,0,0,0,0,0,0,0,0,0,0,0,0,1.4027,1.4027,0,1.3951,1.3951,1.395,1.3911,1.3911,1.3911,1.3911,1.3828,1.3826,1.3824,0,0,0,0,0,0,0,0,0,0,0,0,0,1.4134,1.4132,1.4027,1.4026,1.4026,1.3952,1.3951,1.3949,1.3911,1.3911,1.3911,1.3911,1.3829,1.3826,1.3823,0,0,0,0,0,0,0,0,0,0,0,0,0,1.4076,1.4132,1.4028,1.3998,1.3994,1.3952,1.3951,1.3949,1.3911,1.3911,1.3911,1.3911,1.383,1.3826,1.3823,1.3803,0,0,1.3813,1.3812,0,0,0,0,0,0,0,0,1.4079,1.4072,1.4003,1.4,1.3996,1.3941,1.3958,1.39,1.3911,1.3942,1.3911,1.3911,1.3865,1.3859,1.3845,1.3799,1.3796,1.3813,1.3811,1.3809,1.3808,0,0,0,0,0,0,0,1.4083,1.4075,1.3997,1.4002,1.3997,1.3986,1.3978,1.3946,1.3905,1.394,1.3937,1.3929,1.3863,1.3848,1.3842,1.3794,1.3813,1.381,1.3808,1.3807,1.3728,1.3728,0,0,0,0,0,0,1.4093,1.4078,1.4,1.3995,1.4038,1.3984,1.3975,1.3958,1.3905,1.3897,1.3929,1.3927,1.3854,1.3846,1.3839,1.3812,1.3809,1.3806,1.3804,1.3728,1.3728,1.3728,0,0,0,0,0,0,1.4095,1.4086,1.4003,1.4036,1.4024,1.3983,1.3964,1.3957,1.3942,1.3897,1.3889,1.3921,1.3853,1.3844,1.3813,1.3809,1.3805,1.3802,1.3728,1.3728,1.3728,1.3758,0,0,0,0,0,0,1.4098,1.4087,1.408,1.4036,1.4023,1.3979,1.3964,1.3955,1.3937,1.3934,1.3887,1.388,1.3852,1.3818,1.3809,1.3804,1.3799,1.3729,1.3728,1.3728,1.3757,1.3759,1.376,0,0,0,0,0,1.4102,1.4091,1.408,1.4071,1.4014,1.3979,1.3971,1.3942,1.3937,1.3929,1.39,1.3881,1.3811,1.3815,1.3805,1.3799,1.3729,1.3728,1.3728,1.3756,1.3759,1.376,0,0,0,0,0,0,1.4134,1.4084,1.4072,1.4046,1.4017,1.3973,1.3962,1.3945,1.3915,1.3914,1.3877,1.3866,1.3838,1.3815,1.3821,1.3776,1.3768,1.3766,1.3793,1.3794,1.3796,1.3801,1.3796,0,0,0,0,0,1.4138,1.4116,1.4073,1.4054,1.404,1.4004,1.3987,1.3967,1.3935,1.3922,1.3891,1.3859,1.3829,1.381,1.3781,1.3754,1.3742,1.3744,1.3746,1.3748,1.3746,1.3729,1.3729,1.3727,1.3727,1.3727,0,0,1.4146,1.4116,1.4104,1.406,1.4035,1.4011,1.3993,1.3969,1.395,1.3917,1.3887,1.3863,1.3824,1.3795,1.3781,1.3775,1.3744,1.3747,1.3749,1.3746,1.3729,1.3729,1.3729,1.3727,1.3727,1.3727,0,0,1.4148,1.4124,1.4105,1.4081,1.4044,1.402,1.4016,1.3974,1.3957,1.3926,1.3901,1.3877,1.3828,1.3801,1.3781,1.3774,1.3755,1.3765,1.3773,1.3757,1.3757,1.3757,1.3754,1.3753,1.3764,1.3764,1.3764,0,1.4162,1.4126,1.4097,1.4074,1.4055,1.4027,1.4007,1.3984,1.3939,1.3926,1.392,1.3858,1.383,1.3794,1.3792,1.3777,1.377,1.377,1.376,1.376,1.3759,1.3755,1.3754,1.3765,1.3765,1.3765,1.3765,0,1.4145,1.4121,1.411,1.4069,1.4048,1.4027,1.3993,1.3976,1.3958,1.3934,1.3901,1.3867,1.383,1.382,1.3801,1.3781,1.3779,1.3768,1.3758,1.3761,1.3757,1.3756,1.3767,1.3767,1.3766,1.3766,0,0,1.4164,1.4108,1.4105,1.4086,1.4043,1.4023,1.4,1.3965,1.3951,1.392,1.3899,1.3858,1.3847,1.3825,1.3803,1.3789,1.3785,1.3779,1.3777,1.3781,1.3759,1.3768,1.3767,1.3773,1.3772,1.3772,1.3763,0,1.4159,1.4119,1.4092,1.4061,1.4038,1.401,1.399,1.3961,1.3938,1.3913,1.3886,1.3858,1.3846,1.3832,1.3818,1.3788,1.378,1.3789,1.3751,1.375,1.3761,1.3765,1.3774,1.3767,1.3761,1.376,1.376,0,1.4149,1.4121,1.4089,1.4049,1.4038,1.4021,1.3987,1.3964,1.393,1.3914,1.389,1.3867,1.384,1.3834,1.3795,1.3802,1.3784,1.3768,1.3767,1.3761,1.3755,1.3759,1.3764,1.3763,1.3758,1.3758,1.3758,0,1.4165,1.412,1.4095,1.4079,1.4032,1.4021,1.4,1.3966,1.3947,1.3917,1.3904,1.3871,1.3852,1.3826,1.3795,1.3793,1.3759,1.375,1.3743,1.3744,1.3737,1.3738,1.3738,1.3727,1.3727,1.3727,1.3727,0,1.4163,1.4144,1.4102,1.4086,1.4063,1.4032,1.401,1.3987,1.3957,1.3935,1.3909,1.3888,1.3849,1.3823,1.3799,1.377,1.3762,1.3747,1.374,1.3749,1.3751,1.3736,1.3736,1.3727,1.3727,1.3727,1.3727,0,1.4177,1.4149,1.4119,1.4078,1.4067,1.4052,1.4015,1.3998,1.3974,1.3947,1.3938,1.39,1.3868,1.3835,1.3791,1.3774,1.3746,1.3738,1.3759,1.3755,1.375,1.3751,1.3741,1.3738,1.373,1.373,1.373,0,1.4177,1.4162,1.412,1.4105,1.4085,1.406,1.4041,1.401,1.3991,1.3951,1.3938,1.3905,1.3877,1.3828,1.3794,1.3761,1.3751,1.375,1.3745,1.3754,1.375,1.3751,1.3749,1.3751,1.3751,1.3751,1.3751,0,1.4181,1.4167,1.4142,1.4111,1.409,1.4064,1.4037,1.4025,1.3988,1.3967,1.3936,1.3914,1.3871,1.3838,1.38,1.3777,1.3757,1.3753,1.375,1.3758,1.3771,1.3763,1.3762,1.3753,1.3753,1.3753,1.3753,1.3753,1.4187,1.4172,1.4141,1.4113,1.409,1.4065,1.4047,1.4021,1.3995,1.3959,1.3941,1.3909,1.3875,1.3823,1.38,1.3774,1.3768,1.3763,1.3762,1.3761,1.3763,1.3776,1.3767,1.3767,1.3767,1.3767,1.3766,0,1.4188,1.4167,1.4142,1.4106,1.4084,1.407,1.4039,1.4021,1.3994,1.3964,1.3938,1.3901,1.3869,1.3834,1.3799,1.3785,1.3775,1.3776,1.3777,1.3772,1.377,1.3777,1.3785,1.3785,1.3785,1.3785,1.3785,1.3785,1.4186,1.4161,1.4144,1.4106,1.4084,1.4054,1.4037,1.4014,1.399,1.3951,1.3925,1.3903,1.3871,1.3834,1.3803,1.3794,1.3782,1.3786,1.3774,1.3773,1.3772,1.377,1.3776,1.3784,1.3784,1.3777,1.3777,1.3777]},{"header":{"parameterUnit":"m.s-1","parameterCategory":1,"la1":30.2991,"la2":30.254,"lo1":-89.0895,"lo2":-89.0444,"dy":0.0017,"dx":0.0017,"nx":28,"ny":28,"refTime":"2023-10-17T03:00:00:Z","depth":0,"parameterNumber":3,"parameterNumberName":"V-component_of_WINDS"},"data":[0,0,0,0,0,0,0,0,0,0,0,0,0,0,0,0,0,0,0,0,0,0,0,0,0,0,0,0,0,0,0,0,0,0,0,0,0,0,0,0,0,0,0,0,0,0,0,0,0,0,0,0,0,0,0,0,0,0,-5.0941,-5.0943,0,-5.1098,-5.1099,-5.1101,-5.1026,-5.1022,-5.1018,-5.1015,-5.117,-5.1178,-5.1185,0,0,0,0,0,0,0,0,0,0,0,0,0,-5.0573,-5.058,-5.0941,-5.0943,-5.0945,-5.1097,-5.1099,-5.1102,-5.1027,-5.1022,-5.1017,-5.1013,-5.1168,-5.1177,-5.1186,0,0,0,0,0,0,0,0,0,0,0,0,0,-5.0731,-5.0582,-5.0941,-5.0926,-5.0926,-5.1097,-5.11,-5.1102,-5.1028,-5.1022,-5.1016,-5.101,-5.1164,-5.1176,-5.1188,-5.138,0,0,-5.1224,-5.1229,0,0,0,0,0,0,0,0,-5.0722,-5.0745,-5.0926,-5.0927,-5.0928,-5.1036,-5.1027,-5.1195,-5.103,-5.0989,-5.1014,-5.1008,-5.113,-5.1144,-5.1187,-5.1387,-5.1394,-5.1225,-5.1232,-5.1237,-5.124,0,0,0,0,0,0,0,-5.0712,-5.0738,-5.1003,-5.0929,-5.093,-5.091,-5.0926,-5.1058,-5.1091,-5.0992,-5.0987,-5.1007,-5.1129,-5.1176,-5.119,-5.1396,-5.1224,-5.1235,-5.1242,-5.1247,-5.1762,-5.1768,0,0,0,0,0,0,-5.0702,-5.0729,-5.0998,-5.1007,-5.0809,-5.0922,-5.094,-5.1008,-5.109,-5.1096,-5.1012,-5.1003,-5.1158,-5.1176,-5.1195,-5.1426,-5.1237,-5.1248,-5.1254,-5.1756,-5.1764,-5.1771,0,0,0,0,0,0,-5.0694,-5.0726,-5.0991,-5.0867,-5.0899,-5.0935,-5.1011,-5.1014,-5.106,-5.1105,-5.1109,-5.1054,-5.1154,-5.1178,-5.1335,-5.143,-5.1253,-5.1264,-5.1748,-5.1758,-5.1767,-5.189,0,0,0,0,0,0,-5.0684,-5.0724,-5.0799,-5.0869,-5.0906,-5.1131,-5.1017,-5.1021,-5.1081,-5.1071,-5.1145,-5.1151,-5.1151,-5.1318,-5.1347,-5.1443,-5.1273,-5.1739,-5.1752,-5.1764,-5.1877,-5.1903,-5.1924,0,0,0,0,0,-5.0671,-5.0826,-5.0803,-5.0836,-5.1001,-5.1136,-5.1157,-5.1156,-5.1089,-5.1164,-5.1192,-5.1149,-5.1415,-5.1334,-5.1366,-5.1468,-5.1733,-5.1749,-5.1763,-5.1867,-5.1898,-5.1924,0,0,0,0,0,0,-5.0764,-5.0835,-5.081,-5.0993,-5.1059,-5.1123,-5.1218,-5.1188,-5.1274,-5.1261,-5.1253,-5.1271,-5.1433,-5.1466,-5.1375,-5.1659,-5.1564,-5.1586,-5.1632,-5.1662,-5.1685,-5.1674,-5.1283,0,0,0,0,0,-5.0806,-5.0912,-5.0967,-5.1123,-5.1158,-5.1182,-5.1241,-5.1235,-5.1302,-5.133,-5.137,-5.1436,-5.1534,-5.1599,-5.1692,-5.1881,-5.1896,-5.1967,-5.199,-5.201,-5.2029,-5.2132,-5.2164,-5.182,-5.182,-5.1819,0,0,-5.0893,-5.0945,-5.1012,-5.1143,-5.1194,-5.1302,-5.1206,-5.1325,-5.1405,-5.1347,-5.1498,-5.153,-5.1603,-5.1777,-5.1855,-5.1809,-5.2127,-5.2029,-5.2044,-5.2053,-5.215,-5.2183,-5.2212,-5.183,-5.1828,-5.1826,0,0,-5.1108,-5.1158,-5.1294,-5.1347,-5.1426,-5.1441,-5.1473,-5.1543,-5.1562,-5.1714,-5.1673,-5.1767,-5.1937,-5.1991,-5.2041,-5.2277,-5.224,-5.2307,-5.243,-5.253,-5.2557,-5.2581,-5.2666,-5.2696,-5.2326,-5.2326,-5.2326,0,-5.1206,-5.137,-5.1367,-5.149,-5.1548,-5.1502,-5.1639,-5.169,-5.1794,-5.1835,-5.1782,-5.1995,-5.2041,-5.2227,-5.2285,-5.2327,-5.2363,-5.2299,-5.2554,-5.2578,-5.26,-5.2681,-5.2713,-5.2334,-5.2333,-5.2332,-5.2331,0,-5.1487,-5.1601,-5.1701,-5.1806,-5.1875,-5.2004,-5.2019,-5.209,-5.2077,-5.2097,-5.2252,-5.2306,-5.2409,-5.2453,-5.244,-5.2638,-5.2606,-5.2554,-5.2459,-5.2641,-5.2717,-5.2747,-5.2345,-5.2342,-5.234,-5.2338,0,0,-5.1766,-5.1867,-5.1904,-5.1951,-5.2034,-5.2122,-5.2248,-5.2351,-5.2412,-5.2485,-5.2591,-5.2736,-5.2688,-5.2745,-5.2738,-5.2826,-5.301,-5.2762,-5.2764,-5.2807,-5.3231,-5.3271,-5.3307,-5.2986,-5.2992,-5.2996,-5.3225,0,-5.1987,-5.2211,-5.2212,-5.2418,-5.2523,-5.2481,-5.259,-5.2653,-5.2675,-5.2767,-5.279,-5.2894,-5.2822,-5.2857,-5.2942,-5.297,-5.3095,-5.2953,-5.3084,-5.3088,-5.3068,-5.3346,-5.3389,-5.3602,-5.3255,-5.326,-5.3263,0,-5.2276,-5.2361,-5.2578,-5.2647,-5.2691,-5.2791,-5.2885,-5.2973,-5.3043,-5.3052,-5.3117,-5.3096,-5.3224,-5.3124,-5.33,-5.3203,-5.3256,-5.3278,-5.3286,-5.3299,-5.3188,-5.3368,-5.367,-5.3703,-5.331,-5.3306,-5.3303,0,-5.2459,-5.2627,-5.2779,-5.282,-5.2904,-5.2975,-5.3013,-5.3076,-5.3138,-5.322,-5.326,-5.3355,-5.3408,-5.3481,-5.3487,-5.3413,-5.3664,-5.3564,-5.3675,-5.3675,-5.373,-5.3727,-5.4047,-5.3763,-5.3763,-5.3762,-5.3761,0,-5.2707,-5.2842,-5.2862,-5.2956,-5.3105,-5.3104,-5.3251,-5.3282,-5.3339,-5.3437,-5.3405,-5.3497,-5.3499,-5.3592,-5.3597,-5.3742,-5.3765,-5.3776,-5.3776,-5.378,-5.3779,-5.3816,-5.3801,-5.3771,-5.3769,-5.3767,-5.3766,0,-5.2937,-5.2956,-5.3119,-5.3185,-5.3205,-5.3312,-5.3368,-5.3457,-5.3476,-5.36,-5.3629,-5.3659,-5.3768,-5.3781,-5.3907,-5.391,-5.4085,-5.4068,-5.4063,-5.406,-5.4171,-5.4161,-5.4526,-5.4574,-5.4258,-5.4261,-5.4264,0,-5.3095,-5.3197,-5.3275,-5.334,-5.3382,-5.3485,-5.3549,-5.3551,-5.3618,-5.3705,-5.3783,-5.3889,-5.3974,-5.415,-5.4182,-5.4278,-5.4265,-5.4386,-5.4279,-5.428,-5.4268,-5.4262,-5.4273,-5.4407,-5.441,-5.4413,-5.4416,0,-5.3373,-5.3377,-5.3471,-5.3569,-5.3647,-5.3723,-5.3795,-5.3849,-5.3859,-5.3936,-5.4049,-5.4115,-5.4245,-5.435,-5.4445,-5.4482,-5.4452,-5.4449,-5.448,-5.4486,-5.4479,-5.4485,-5.412,-5.4441,-5.4438,-5.4436,-5.4435,-5.4434,-5.3572,-5.3662,-5.3731,-5.3837,-5.3891,-5.396,-5.4047,-5.4077,-5.4171,-5.4279,-5.4273,-5.4397,-5.4463,-5.4588,-5.4632,-5.4727,-5.4687,-5.4732,-5.4743,-5.4754,-5.4766,-5.4463,-5.4744,-5.4744,-5.4743,-5.4742,-5.4742,0,-5.385,-5.3892,-5.399,-5.4092,-5.4175,-5.414,-5.4218,-5.4289,-5.4399,-5.4464,-5.4549,-5.4678,-5.478,-5.482,-5.492,-5.4989,-5.4977,-5.5015,-5.5011,-5.502,-5.4796,-5.476,-5.5023,-5.5023,-5.5023,-5.5023,-5.5023,-5.5023,-5.4004,-5.4155,-5.4167,-5.4344,-5.4385,-5.4508,-5.4555,-5.4617,-5.467,-5.4816,-5.4901,-5.4927,-5.4983,-5.5086,-5.5178,-5.5187,-5.5226,-5.527,-5.5273,-5.5064,-5.5035,-5.5008,-5.4975,-5.5278,-5.5279,-5.5489,-5.5491,-5.5493]}]]